This demonstration page uses our WeatherBlox Daily Observations layout. Learn more.

Left ArrowRight Arrow

Hourly Observations for October 17, 2015

Temp ( °F °C ) Dew Point ( °F °C ) Humidity (%) Winds ( mph kmh ) Pressure ( in mb ) Visibility ( mi km ) Precip ( " mm )
12:15 am 00:15 Clear 43 6 25 -4 49 49 SE 8 13 30.39 1029 10 16 0.00 0.00
12:35 am 00:35 Clear 41 5 25 -4 53 53 SE 8 13 30.39 1029 10 16 0.00 0.00
12:55 am 00:55 Clear 41 5 23 -5 49 49 SSE 8 13 30.39 1029 10 16 0.00 0.00
1:15 am 01:15 Clear 39 4 25 -4 56 56 SSE 8 13 30.42 1030 10 16 0.00 0.00
1:35 am 01:35 Clear 39 4 25 -4 56 56 SSE 6 9 30.42 1030 10 16 0.00 0.00
1:55 am 01:55 Clear 39 4 25 -4 56 56 SE 7 11 30.42 1030 10 16 0.00 0.00
2:15 am 02:15 Clear 39 4 25 -4 56 56 SE 5 7 30.42 1030 10 16 0.00 0.00
2:35 am 02:35 Clear 39 4 25 -4 56 56 SE 6 9 30.42 1030 10 16 0.00 0.00
2:55 am 02:55 Clear 39 4 25 -4 56 56 SE 6 9 30.42 1030 10 16 0.00 0.00
3:15 am 03:15 Clear 39 4 23 -5 52 52 SSE 6 9 30.42 1030 10 16 0.00 0.00
3:35 am 03:35 Clear 37 3 25 -4 60 60 SE 7 11 30.42 1030 10 16 0.00 0.00
3:55 am 03:55 Clear 37 3 25 -4 60 60 SE 7 11 30.39 1029 10 16 0.00 0.00
4:15 am 04:15 Clear 37 3 25 -4 60 60 SSE 6 9 30.39 1029 10 16 0.00 0.00
4:35 am 04:35 Clear 37 3 25 -4 60 60 SE 5 7 30.39 1029 10 16 0.00 0.00
4:55 am 04:55 Clear 37 3 25 -4 60 60 SE 6 9 30.39 1029 10 16 0.00 0.00
5:15 am 05:15 Clear 37 3 25 -4 60 60 SE 6 9 30.39 1029 10 16 0.00 0.00
5:35 am 05:35 Clear 37 3 25 -4 60 60 SE 6 9 30.39 1029 10 16 0.00 0.00
5:55 am 05:55 Clear 37 3 25 -4 60 60 SE 5 7 30.39 1029 10 16 0.00 0.00
6:15 am 06:15 Clear 37 3 25 -4 60 60 SE 6 9 30.42 1030 10 16 0.00 0.00
6:35 am 06:35 Clear 37 3 25 -4 60 60 SSE 6 9 30.39 1029 10 16 0.00 0.00
6:55 am 06:55 Clear 37 3 25 -4 60 60 SE 6 9 30.42 1030 10 16 0.00 0.00
7:15 am 07:15 Clear 37 3 25 -4 60 60 SE 7 11 30.42 1030 10 16 0.00 0.00
7:35 am 07:35 Clear 36 2 25 -4 65 65 SE 7 11 30.42 1030 10 16 0.00 0.00
7:55 am 07:55 Sunny 36 2 25 -4 65 65 SSE 8 13 30.42 1030 10 16 0.00 0.00
8:15 am 08:15 Sunny 37 3 27 -3 65 65 SE 6 9 30.42 1030 10 16 0.00 0.00
8:35 am 08:35 Sunny 39 4 27 -3 61 61 SE 6 9 30.42 1030 10 16 0.00 0.00
8:55 am 08:55 Sunny 41 5 27 -3 57 57 SSE 9 15 30.39 1029 10 16 0.00 0.00
9:15 am 09:15 Sunny 45 7 28 -2 53 53 SSE 13 20 30.39 1029 10 16 0.00 0.00
9:35 am 09:35 Sunny 46 8 28 -2 50 50 SSE 16 26 30.36 1028 10 16 0.00 0.00
9:55 am 09:55 Sunny 48 9 28 -2 46 46 SSE 14 22 30.36 1028 10 16 0.00 0.00
10:15 am 10:15 Sunny 52 11 28 -2 41 41 SSE 17 28 30.36 1028 10 16 0.00 0.00
10:35 am 10:35 Sunny 55 13 28 -2 36 36 SSE 17 28 30.33 1027 10 16 0.00 0.00
10:55 am 10:55 Sunny 57 14 28 -2 33 33 SSE 16 26 30.33 1027 10 16 0.00 0.00
11:15 am 11:15 Sunny 57 14 28 -2 33 33 SSE 20 31 30.33 1027 10 16 0.00 0.00
11:35 am 11:35 Sunny 61 16 28 -2 29 29 SSE 21 33 30.30 1026 10 16 0.00 0.00
11:55 am 11:55 Sunny 61 16 28 -2 29 29 SSE 18 30 30.30 1026 10 16 0.00 0.00
12:15 pm 12:15 Mostly Sunny 63 17 28 -2 27 27 S 20 31 30.30 1026 10 16 0.00 0.00
12:35 pm 12:35 Mostly Cloudy 61 16 28 -2 29 29 SE 22 35 30.27 1025 10 16 0.00 0.00
12:55 pm 12:55 Cloudy 63 17 28 -2 27 27 SE 21 33 30.27 1025 10 16 0.00 0.00
1:15 pm 13:15 Cloudy 63 17 28 -2 27 27 SSE 20 31 30.27 1025 10 16 0.00 0.00
1:35 pm 13:35 Cloudy 61 16 28 -2 29 29 SE 21 33 30.27 1025 10 16 0.00 0.00
1:55 pm 13:55 Mostly Cloudy 63 17 28 -2 27 27 SE 18 30 30.24 1024 10 16 0.00 0.00
2:15 pm 14:15 Mostly Cloudy 64 18 28 -2 26 26 SE 18 30 30.24 1024 10 16 0.00 0.00
2:35 pm 14:35 Partly Cloudy 64 18 28 -2 26 26 SE 21 33 30.24 1024 10 16 0.00 0.00
2:55 pm 14:55 Mostly Cloudy 64 18 28 -2 26 26 SE 21 33 30.24 1024 10 16 0.00 0.00
3:15 pm 15:15 Cloudy 63 17 28 -2 27 27 SE 21 33 30.24 1024 10 16 0.00 0.00
3:35 pm 15:35 Cloudy 64 18 28 -2 26 26 SE 18 30 30.24 1024 10 16 0.00 0.00
3:55 pm 15:55 Partly Cloudy 64 18 28 -2 26 26 SE 16 26 30.24 1024 10 16 0.00 0.00
4:15 pm 16:15 Sunny 64 18 28 -2 26 26 SE 20 31 30.24 1024 10 16 0.00 0.00
4:35 pm 16:35 Sunny 64 18 27 -3 24 24 SE 17 28 30.24 1024 10 16 0.00 0.00
4:55 pm 16:55 Sunny 63 17 28 -2 27 27 SE 17 28 30.24 1024 10 16 0.00 0.00
5:15 pm 17:15 Sunny 63 17 27 -3 25 25 E 21 33 30.24 1024 10 16 0.00 0.00
5:35 pm 17:35 Sunny 63 17 27 -3 25 25 SE 20 31 30.24 1024 10 16 0.00 0.00
5:55 pm 17:55 Mostly Sunny 61 16 27 -3 27 27 SE 17 28 30.24 1024 10 16 0.00 0.00
6:15 pm 18:15 Mostly Cloudy 59 15 27 -3 29 29 SE 18 30 30.21 1023 10 16 0.00 0.00
6:35 pm 18:35 Mostly Sunny 57 14 27 -3 31 31 SE 14 22 30.24 1024 10 16 0.00 0.00
6:55 pm 18:55 Clear 55 13 27 -3 33 33 ESE 13 20 30.24 1024 10 16 0.00 0.00
7:15 pm 19:15 Clear 54 12 27 -3 35 35 ESE 10 17 30.24 1024 10 16 0.00 0.00
7:35 pm 19:35 Clear 54 12 27 -3 35 35 ESE 12 19 30.24 1024 10 16 0.00 0.00
7:55 pm 19:55 Clear 52 11 27 -3 38 38 SE 12 19 30.24 1024 10 16 0.00 0.00
8:15 pm 20:15 Clear 50 10 27 -3 40 40 SE 10 17 30.30 1026 10 16 0.00 0.00
8:35 pm 20:35 Clear 48 9 27 -3 43 43 SE 9 15 30.30 1026 10 16 0.00 0.00
8:55 pm 20:55 Clear 48 9 27 -3 43 43 SE 9 15 30.30 1026 10 16 0.00 0.00
9:15 pm 21:15 Clear 48 9 28 -2 46 46 ESE 10 17 30.30 1026 10 16 0.00 0.00
9:35 pm 21:35 Clear 48 9 28 -2 46 46 SSE 9 15 30.30 1026 10 16 0.00 0.00
9:55 pm 21:55 Clear 46 8 28 -2 50 50 SE 9 15 30.30 1026 10 16 0.00 0.00
10:15 pm 22:15 Clear 46 8 28 -2 50 50 SSE 9 15 30.27 1025 10 16 0.00 0.00
10:35 pm 22:35 Clear 46 8 27 -3 46 46 SE 9 15 30.30 1026 10 16 0.00 0.00
10:55 pm 22:55 Clear 45 7 27 -3 49 49 SE 8 13 30.33 1027 10 16 0.00 0.00
11:15 pm 23:15 Clear 45 7 27 -3 49 49 SE 8 13 30.27 1025 10 16 0.00 0.00
11:35 pm 23:35 Clear 45 7 27 -3 49 49 SSE 9 15 30.27 1025 10 16 0.00 0.00
11:55 pm 23:55 Clear 45 7 27 -3 49 49 SSE 8 13 30.27 1025 10 16 0.00 0.00

Powered by AerisWeather